Un día en 60 segundos7/5/26
Time Wind Dir Wind Spd Wind Gust Hum In Humidity Temp In Temp Raw Barom Tot Rain
° km/hr km/hr % % °C °C mb mm
0:00 194 2 3 43 69 22.7 15.0 1009.29 248.00
0:20 200 0 5 44 72 22.6 14.6 1009.39 248.00
0:40 201 2 2 44 75 22.5 14.6 1009.39 248.00
1:00 201 5 5 45 76 22.4 14.8 1009.26 248.00
1:20 202 0 6 45 76 22.4 14.7 1009.22 248.00
1:40 202 0 3 46 76 22.3 14.2 1009.19 248.00
2:00 202 0 3 46 78 22.3 13.9 1009.02 248.00
2:20 202 0 2 46 77 22.2 13.9 1008.85 248.00
2:40 202 0 0 46 77 22.2 13.8 1008.85 248.00
3:00 202 0 0 46 77 22.1 13.7 1008.65 248.00
3:20 202 0 0 46 77 22.1 13.4 1008.55 248.00
3:40 201 0 3 47 79 21.9 13.3 1008.34 248.00
4:00 200 0 3 47 80 21.9 13.1 1008.18 248.00
4:20 200 0 0 47 80 21.8 13.0 1008.14 248.00
4:40 200 0 0 47 81 21.8 12.9 1008.18 248.00
5:00 200 0 0 47 81 21.7 12.9 1008.24 248.00
5:20 200 0 0 48 82 21.6 13.1 1008.34 248.00
5:40 200 0 0 48 82 21.6 12.7 1008.31 248.00
6:00 200 0 0 48 83 21.5 12.4 1008.38 248.00
6:20 200 0 0 48 85 21.4 12.3 1008.51 248.00
6:40 200 0 0 48 85 21.3 12.3 1008.68 248.00
7:00 200 0 0 49 85 21.2 12.2 1008.82 248.00
7:20 200 0 0 49 86 21.2 12.1 1008.82 248.00
7:40 200 0 0 49 86 21.1 12.0 1008.75 248.00
8:00 200 0 0 49 86 21.1 12.2 1009.02 248.00
8:20 84 0 6 49 85 21.1 12.9 1009.19 248.00
8:40 109 3 10 49 84 21.3 13.9 1009.29 248.00
9:00 146 6 10 49 83 21.5 14.3 1009.49 248.00
9:20 175 3 13 49 81 21.7 15.3 1009.53 248.00
9:40 197 14 19 50 78 21.9 16.4 1009.87 248.00
10:00 184 13 19 50 77 22.3 17.1 1009.90 248.00
10:20 151 5 21 50 77 22.3 17.2 1009.90 248.00
10:40 211 6 24 50 74 22.2 17.6 1010.03 248.00
11:00 202 10 24 50 72 22.1 17.5 1010.20 248.00
11:20 219 10 16 50 70 22.1 18.4 1010.17 248.00
11:40 173 8 16 49 68 22.3 18.6 1010.17 248.00
12:00 198 5 19 49 67 22.3 18.8 1010.07 248.00
12:20 173 8 18 49 64 22.4 19.6 1009.90 248.00
12:40 237 6 19 49 60 22.6 20.4 1009.73 248.00
13:00 195 14 23 48 62 22.6 20.2 1009.87 248.00
13:20 209 6 21 48 60 22.6 20.4 1009.80 248.00
13:40 228 3 23 47 59 22.6 20.8 1009.73 248.00
14:00 206 13 23 47 59 22.7 20.8 1009.63 248.00
14:20 214 14 24 47 56 22.7 20.6 1009.66 248.00
14:40 234 23 24 46 54 22.8 20.7 1009.49 248.00
15:00 218 16 24 46 54 22.8 20.9 1009.26 248.00
15:20 187 10 26 46 55 22.8 21.0 1009.19 248.00
15:40 219 14 27 45 55 22.8 21.3 1008.95 248.00
16:00 241 19 27 45 53 22.8 21.4 1008.85 248.00
16:20 252 16 24 44 52 22.9 21.8 1008.72 248.00
16:40 255 8 23 44 49 22.9 22.1 1008.51 248.00
17:00 296 6 23 43 47 23.0 22.2 1008.34 248.00
17:20 250 6 21 43 48 23.1 22.2 1008.18 248.00
17:40 215 8 19 43 49 23.1 22.3 1008.21 248.00
18:00 216 6 26 43 49 23.1 21.7 1008.28 248.00
18:20 237 5 24 43 50 23.2 21.7 1008.34 248.00
18:40 260 18 21 42 51 23.2 21.5 1008.34 248.00
19:00 226 8 26 42 52 23.1 20.7 1008.65 248.00
19:20 263 14 26 42 53 23.0 20.4 1008.75 248.00
19:40 265 16 21 43 55 23.0 20.1 1008.95 248.00
20:00 250 14 23 43 57 22.9 19.4 1009.12 248.00
20:20 267 13 23 44 59 22.8 19.0 1009.39 248.00
20:40 243 5 23 44 64 22.8 18.3 1009.70 248.00
21:00 275 6 23 45 66 22.7 17.6 1009.93 248.00
21:20 254 5 18 46 67 22.6 17.2 1010.03 248.00
21:40 279 3 13 46 66 22.5 16.9 1010.24 248.00
22:00 292 3 13 46 66 22.4 16.8 1010.30 248.00
22:20 274 2 11 46 66 22.4 16.7 1010.27 248.00
22:40 237 3 8 46 68 22.3 16.5 1010.51 248.00
23:00 244 0 8 46 70 22.3 16.1 1010.78 248.00
23:20 209 3 6 47 72 22.3 15.7 1010.98 248.00
23:40 165 0 3 47 73 22.2 15.3 1011.01 248.00